�������l�o���
Date,Time,MP-1(��Sv/h),MP-2(��Sv/h),MP-3(��Sv/h),MP-4(��Sv/h),MP-5(��Sv/h),MP-6(��Sv/h),MP-7(��Sv/h),����,����(m/s),���J
2023/06/30,00:00,0.143,0.131,0.208,0.196,0.209,0.115,0.074,���쐼,1.1,��
2023/06/30,00:10,0.142,0.132,0.205,0.197,0.208,0.114,0.074,�k��,1.2,��
2023/06/30,00:20,0.141,0.132,0.205,0.196,0.206,0.113,0.074,��,0.7,��
2023/06/30,00:30,0.143,0.133,0.208,0.196,0.209,0.115,0.075,���k��,1.7,��
2023/06/30,00:40,0.143,0.132,0.205,0.199,0.209,0.114,0.074,-,CALM,��
2023/06/30,00:50,0.141,0.131,0.206,0.196,0.206,0.114,0.074,��쐼,2.1,��
2023/06/30,01:00,0.143,0.133,0.206,0.197,0.207,0.115,0.075,��쐼,2.5,��
2023/06/30,01:10,0.142,0.132,0.206,0.199,0.209,0.113,0.074,��쐼,1.9,��
2023/06/30,01:20,0.142,0.132,0.206,0.196,0.208,0.114,0.074,��쐼,3.0,��
2023/06/30,01:30,0.143,0.132,0.207,0.198,0.208,0.115,0.075,�쐼,4.0,��
2023/06/30,01:40,0.142,0.131,0.205,0.197,0.209,0.114,0.074,��쐼,4.5,��
2023/06/30,01:50,0.142,0.133,0.207,0.197,0.208,0.114,0.075,��쐼,5.2,��
2023/06/30,02:00,0.143,0.132,0.204,0.199,0.207,0.114,0.074,�쐼,4.9,��
2023/06/30,02:10,0.142,0.131,0.206,0.197,0.209,0.114,0.073,�쐼,3.1,��
2023/06/30,02:20,0.142,0.132,0.206,0.198,0.208,0.113,0.075,�쐼,2.2,��
2023/06/30,02:30,0.144,0.131,0.205,0.199,0.205,0.114,0.074,�쐼,3.8,��
2023/06/30,02:40,0.143,0.132,0.207,0.196,0.208,0.114,0.074,�쐼,2.7,��
2023/06/30,02:50,0.142,0.132,0.205,0.198,0.209,0.114,0.074,���쐼,2.6,��
2023/06/30,03:00,0.143,0.131,0.206,0.198,0.207,0.115,0.074,���쐼,1.3,��
2023/06/30,03:10,0.142,0.132,0.206,0.195,0.209,0.114,0.075,�쐼,2.2,��
2023/06/30,03:20,0.142,0.131,0.206,0.198,0.210,0.114,0.074,�쐼,1.9,��
2023/06/30,03:30,0.143,0.132,0.206,0.198,0.207,0.114,0.074,�쐼,2.7,��
2023/06/30,03:40,0.142,0.132,0.207,0.197,0.208,0.114,0.075,�쐼,3.1,��
2023/06/30,03:50,0.143,0.131,0.204,0.199,0.210,0.114,0.075,���쐼,2.8,��
2023/06/30,04:00,0.143,0.132,0.207,0.198,0.207,0.115,0.074,�쐼,2.2,��
2023/06/30,04:10,0.141,0.132,0.206,0.198,0.207,0.114,0.075,��쐼,2.1,��
2023/06/30,04:20,0.143,0.133,0.205,0.198,0.209,0.115,0.075,��쓌,1.6,��
2023/06/30,04:30,0.144,0.133,0.207,0.197,0.208,0.115,0.075,��,1.1,��
2023/06/30,04:40,0.142,0.130,0.204,0.198,0.208,0.114,0.074,��,2.3,��
2023/06/30,04:50,0.144,0.132,0.207,0.199,0.208,0.116,0.075,��쐼,2.3,��
2023/06/30,05:00,0.143,0.131,0.208,0.196,0.208,0.114,0.074,�쐼,1.6,��
2023/06/30,05:10,0.141,0.133,0.205,0.198,0.207,0.114,0.075,�쐼,1.3,��
2023/06/30,05:20,0.144,0.132,0.207,0.199,0.210,0.115,0.074,�쐼,1.9,��
2023/06/30,05:30,0.143,0.131,0.205,0.195,0.207,0.114,0.074,��쐼,1.8,��
2023/06/30,05:40,0.143,0.132,0.207,0.199,0.207,0.115,0.075,��쐼,2.1,��
2023/06/30,05:50,0.144,0.132,0.207,0.198,0.210,0.114,0.075,��쐼,2.1,��
2023/06/30,06:00,0.142,0.130,0.205,0.196,0.208,0.114,0.074,��,2.2,��
2023/06/30,06:10,0.141,0.132,0.205,0.200,0.207,0.114,0.075,��,2.4,��
2023/06/30,06:20,0.143,0.132,0.207,0.197,0.209,0.114,0.075,��쓌,2.8,��
2023/06/30,06:30,0.143,0.131,0.204,0.197,0.209,0.115,0.075,��쓌,3.5,��
2023/06/30,06:40,0.141,0.131,0.206,0.197,0.206,0.114,0.075,��쓌,4.5,��
2023/06/30,06:50,0.144,0.134,0.208,0.199,0.205,0.115,0.075,��쓌,4.4,��
2023/06/30,07:00,0.143,0.132,0.206,0.197,0.206,0.114,0.075,��쓌,4.6,��
2023/06/30,07:10,0.142,0.132,0.205,0.197,0.210,0.114,0.074,��,4.8,��
2023/06/30,07:20,0.141,0.130,0.203,0.195,0.209,0.115,0.074,��,5.1,��
2023/06/30,07:30,0.142,0.131,0.204,0.196,0.208,0.115,0.074,��,5.5,��
2023/06/30,07:40,0.144,0.133,0.206,0.199,0.206,0.114,0.074,��,5.4,��
2023/06/30,07:50,0.142,0.132,0.207,0.198,0.205,0.114,0.074,��,5.5,��
2023/06/30,08:00,0.141,0.131,0.205,0.198,0.205,0.114,0.074,��,5.9,��
2023/06/30,08:10,0.142,0.131,0.205,0.196,0.207,0.115,0.075,��,5.0,��
2023/06/30,08:20,0.141,0.131,0.205,0.197,0.207,0.115,0.073,��쓌,5.2,��
2023/06/30,08:30,0.144,0.132,0.204,0.197,0.207,0.114,0.075,��쓌,5.6,��
2023/06/30,08:40,0.144,0.132,0.205,0.196,0.210,0.114,0.075,��쓌,5.6,��
2023/06/30,08:50,0.143,0.133,0.204,0.198,0.209,0.115,0.074,��,4.5,��
2023/06/30,09:00,0.142,0.132,0.206,0.199,0.208,0.115,0.075,��,4.7,��
2023/06/30,09:10,0.141,0.133,0.208,0.198,0.208,0.114,0.074,��,5.0,��
2023/06/30,09:20,0.142,0.131,0.207,0.197,0.206,0.114,0.075,��,5.2,��
2023/06/30,09:30,0.143,0.130,0.205,0.196,0.206,0.114,0.074,��,5.2,�L
2023/06/30,09:40,0.144,0.131,0.205,0.195,0.206,0.115,0.075,��,4.8,�L
2023/06/30,09:50,0.142,0.132,0.205,0.195,0.207,0.116,0.075,��,4.4,�L
2023/06/30,10:00,0.141,0.132,0.205,0.198,0.210,0.115,0.076,��,3.7,�L
2023/06/30,10:10,0.142,0.132,0.206,0.199,0.211,0.115,0.075,��,3.2,�L
2023/06/30,10:20,0.145,0.132,0.208,0.199,0.209,0.115,0.075,��,1.9,�L
2023/06/30,10:30,0.145,0.134,0.209,0.199,0.209,0.117,0.077,��,1.9,�L
2023/06/30,10:40,0.145,0.136,0.210,0.199,0.209,0.118,0.077,��,2.2,�L
2023/06/30,10:50,0.145,0.136,0.209,0.203,0.214,0.118,0.078,��쓌,3.3,�L
2023/06/30,11:00,0.148,0.135,0.212,0.204,0.213,0.119,0.079,��쓌,4.0,�L
2023/06/30,11:10,0.148,0.135,0.212,0.201,0.211,0.119,0.079,��쓌,4.0,�L
2023/06/30,11:20,0.145,0.136,0.209,0.200,0.211,0.117,0.079,��,4.4,�L
2023/06/30,11:30,0.146,0.135,0.210,0.202,0.213,0.116,0.078,��,4.2,�L
2023/06/30,11:40,0.147,0.134,0.211,0.200,0.212,0.118,0.078,��,3.0,�L
2023/06/30,11:50,0.144,0.135,0.209,0.198,0.209,0.117,0.077,��,2.6,�L
2023/06/30,12:00,0.143,0.134,0.208,0.199,0.208,0.116,0.076,��쐼,2.8,�L
2023/06/30,12:10,0.145,0.133,0.206,0.200,0.208,0.116,0.077,��,2.2,�L
2023/06/30,12:20,0.146,0.132,0.209,0.200,0.211,0.116,0.076,��쓌,3.6,�L
2023/06/30,12:30,0.144,0.133,0.208,0.199,0.211,0.116,0.076,��,4.3,�L
2023/06/30,12:40,0.143,0.134,0.206,0.197,0.209,0.115,0.075,��,4.2,��
2023/06/30,12:50,0.143,0.133,0.205,0.197,0.207,0.114,0.075,��,2.8,��
2023/06/30,13:00,0.144,0.131,0.205,0.200,0.206,0.114,0.075,��쐼,1.3,�L
2023/06/30,13:10,0.144,0.131,0.210,0.199,0.210,0.115,0.076,��쓌,1.1,�L
2023/06/30,13:20,0.143,0.133,0.207,0.199,0.209,0.116,0.076,�쓌,1.6,��
2023/06/30,13:30,0.143,0.133,0.206,0.197,0.208,0.115,0.074,��쓌,1.6,��
2023/06/30,13:40,0.145,0.133,0.204,0.198,0.208,0.114,0.075,��쓌,1.4,��
2023/06/30,13:50,0.144,0.132,0.206,0.199,0.208,0.115,0.075,��쓌,2.2,��
2023/06/30,14:00,0.143,0.132,0.209,0.199,0.207,0.116,0.074,��쓌,3.6,�L
2023/06/30,14:10,0.143,0.132,0.208,0.198,0.210,0.115,0.075,��,3.3,��
2023/06/30,14:20,0.145,0.133,0.205,0.197,0.210,0.114,0.075,��,3.3,��
2023/06/30,14:30,0.144,0.132,0.204,0.195,0.208,0.115,0.074,��,3.7,��
2023/06/30,14:40,0.143,0.131,0.206,0.198,0.207,0.114,0.074,��,4.0,��
2023/06/30,14:50,0.141,0.132,0.208,0.199,0.207,0.115,0.074,��,6.5,��
2023/06/30,15:00,0.142,0.132,0.207,0.197,0.206,0.114,0.074,��,7.8,��
2023/06/30,15:10,0.144,0.132,0.207,0.196,0.210,0.113,0.074,��,7.2,��
2023/06/30,15:20,0.142,0.132,0.204,0.197,0.210,0.114,0.075,��,5.2,��
2023/06/30,15:30,0.142,0.131,0.206,0.198,0.208,0.114,0.074,��,4.1,��
2023/06/30,15:40,0.142,0.132,0.209,0.199,0.207,0.115,0.074,��,4.0,��
2023/06/30,15:50,0.145,0.133,0.206,0.197,0.208,0.114,0.075,��,4.9,��
2023/06/30,16:00,0.144,0.133,0.206,0.196,0.210,0.114,0.074,��,4.6,��
2023/06/30,16:10,0.141,0.130,0.205,0.198,0.210,0.115,0.074,��,3.9,��
2023/06/30,16:20,0.143,0.133,0.208,0.200,0.206,0.115,0.074,��,5.4,��
2023/06/30,16:30,0.144,0.133,0.207,0.197,0.206,0.113,0.075,��,6.1,��
2023/06/30,16:40,0.144,0.132,0.206,0.196,0.209,0.115,0.075,��,5.7,��
2023/06/30,16:50,0.142,0.132,0.205,0.198,0.210,0.115,0.074,��,5.5,��
2023/06/30,17:00,0.143,0.133,0.208,0.200,0.208,0.114,0.074,��,6.1,��
2023/06/30,17:10,0.145,0.132,0.207,0.198,0.207,0.113,0.075,��,5.3,�L
2023/06/30,17:20,0.143,0.132,0.206,0.197,0.210,0.115,0.075,��,4.4,�L
2023/06/30,17:30,0.143,0.132,0.207,0.199,0.209,0.116,0.075,��,4.5,�L
2023/06/30,17:40,0.144,0.134,0.208,0.200,0.210,0.115,0.076,��,5.7,�L
2023/06/30,17:50,0.146,0.134,0.207,0.199,0.209,0.115,0.076,��,4.9,�L
2023/06/30,18:00,0.144,0.133,0.206,0.199,0.212,0.115,0.076,��,4.0,�L
2023/06/30,18:10,0.143,0.133,0.207,0.200,0.209,0.116,0.075,��쐼,3.4,��
2023/06/30,18:20,0.144,0.133,0.209,0.200,0.208,0.115,0.076,��,3.9,��
2023/06/30,18:30,0.145,0.132,0.206,0.198,0.208,0.114,0.075,��,3.9,��
2023/06/30,18:40,0.142,0.132,0.206,0.199,0.210,0.115,0.075,��,3.6,�L
2023/06/30,18:50,0.143,0.133,0.208,0.200,0.208,0.114,0.075,��,3.1,�L
2023/06/30,19:00,0.145,0.132,0.207,0.198,0.207,0.115,0.075,��쐼,2.3,�L
2023/06/30,19:10,0.143,0.132,0.206,0.197,0.207,0.115,0.075,��쐼,3.1,�L
2023/06/30,19:20,0.143,0.134,0.206,0.199,0.211,0.116,0.075,��쐼,2.9,�L
2023/06/30,19:30,0.145,0.133,0.209,0.200,0.209,0.115,0.075,��쐼,3.3,�L
2023/06/30,19:40,0.145,0.132,0.206,0.197,0.208,0.115,0.075,��쐼,2.3,��
2023/06/30,19:50,0.142,0.132,0.206,0.197,0.209,0.115,0.075,��쐼,2.4,��
2023/06/30,20:00,0.142,0.134,0.208,0.199,0.211,0.115,0.075,�쐼,2.9,��
2023/06/30,20:10,0.145,0.131,0.206,0.198,0.207,0.113,0.075,�쐼,2.8,�L
2023/06/30,20:20,0.143,0.132,0.205,0.198,0.207,0.115,0.075,��쐼,2.6,�L
2023/06/30,20:30,0.142,0.134,0.207,0.199,0.211,0.115,0.075,�쐼,4.0,�L
2023/06/30,20:40,0.143,0.133,0.206,0.199,0.210,0.115,0.075,��쐼,2.8,�L
2023/06/30,20:50,0.144,0.131,0.206,0.197,0.207,0.115,0.075,��쐼,3.2,��
2023/06/30,21:00,0.143,0.133,0.205,0.198,0.207,0.116,0.075,��,4.0,��
2023/06/30,21:10,0.142,0.133,0.208,0.199,0.209,0.115,0.075,��쐼,4.7,��
2023/06/30,21:20,0.145,0.132,0.207,0.198,0.209,0.114,0.074,��쐼,4.0,�L
2023/06/30,21:30,0.143,0.132,0.205,0.196,0.208,0.115,0.074,��쐼,4.7,��
2023/06/30,21:40,0.143,0.134,0.206,0.198,0.206,0.115,0.075,��쐼,3.8,�L
2023/06/30,21:50,0.143,0.131,0.207,0.199,0.209,0.114,0.075,�쐼,3.5,�L
2023/06/30,22:00,0.144,0.132,0.205,0.197,0.207,0.114,0.074,��쐼,1.3,�L
2023/06/30,22:10,0.142,0.133,0.205,0.197,0.208,0.115,0.074,��,2.8,�L
2023/06/30,22:20,0.142,0.132,0.208,0.200,0.208,0.114,0.075,��,3.3,�L
2023/06/30,22:30,0.144,0.131,0.206,0.199,0.208,0.114,0.074,��쐼,3.6,�L
2023/06/30,22:40,0.144,0.133,0.204,0.197,0.209,0.114,0.074,��쐼,3.3,��
2023/06/30,22:50,0.142,0.133,0.206,0.199,0.208,0.115,0.074,��쐼,3.0,��
2023/06/30,23:00,0.142,0.130,0.208,0.200,0.206,0.115,0.075,��,2.7,��
2023/06/30,23:10,0.144,0.132,0.206,0.198,0.206,0.114,0.074,��,2.3,��
2023/06/30,23:20,0.143,0.132,0.204,0.196,0.210,0.114,0.074,��,2.7,��
2023/06/30,23:30,0.141,0.130,0.207,0.198,0.208,0.114,0.074,��,2.2,�L
2023/06/30,23:40,0.143,0.132,0.207,0.199,0.205,0.114,0.075,��,3.2,��
2023/06/30,23:50,0.142,0.133,0.205,0.196,0.207,0.114,0.074,��,3.0,��
